Regional Weather Roundup
Issued by NWS

Home | Current Version | Previous Version | Text Only | Print | Product List | Glossary On
Versions: 1 2 3 4 5 6 7 8 9 10 11 12 13 14 15 16 17 18 19 20 21 22 23 24 25 26 27 28 29 30 31 32 33 34 35 36 37 38 39 40 41 42 43 44 45 46 47 48 49 50
000
ASUS44 KBMX 281410
RWRAL

ALABAMA REGIONAL WEATHER ROUNDUP
NATIONAL WEATHER SERVICE BIRMINGHAM AL
900 AM CDT TUE JUL 28 2015

NOTE: "FAIR" INDICATES FEW OR NO CLOUDS BELOW 12,000 FEET
WITH NO SIGNIFICANT WEATHER AND/OR OBSTRUCTIONS TO VISIBILITY.

THE REMARK "TC" DENOTES TEMPERATURE IN DEGREES CELSIUS.

ALZ001>011-014-016>018-020-281500-
NORTH ALABAMA

CITY           SKY/WX    TMP DP  RH WIND       PRES   REMARKS
MUSCLE SHOALS  SUNNY     86  76  71 CALM      30.04R HX  96
HUNTSVILLE     MOSUNNY   87  77  72 CALM      30.03R HX  99
DECATUR        SUNNY     86  77  74 CALM      30.04R HX  97
HALEYVILLE     FAIR      84  77  80 CALM      30.08R HX  93
GADSDEN        SUNNY     84  72  65 CALM      30.03R
$$

ALZ012-013-022-023-030>036-040>044-281500-
WEST CENTRAL ALABAMA

CITY           SKY/WX    TMP DP  RH WIND       PRES   REMARKS
TUSCALOOSA     SUNNY     85  75  72 CALM      30.03R HX  93
$$

ALZ015-024>027-033>036-040>044-281500-
CENTRAL ALABAMA

CITY           SKY/WX    TMP DP  RH WIND       PRES   REMARKS
BIRMINGHAM     SUNNY     83  76  79 CALM      30.06R HX  91
MONTGOMERY     SUNNY     86  75  69 W3        30.02S HX  95
SHELBY CO ARPT SUNNY     83  75  77 VRB3      30.04R HX  90
MAXWELL AFB    SUNNY     85  74  70 VRB1      30.01S HX  93
GREENVILLE     FAIR      87  70  56 N5        30.02R HX  92
$$

ALZ019-021-028-029-037-038-045>048-281500-
EAST CENTRAL ALABAMA

CITY           SKY/WX    TMP DP  RH WIND       PRES   REMARKS
ANNISTON       SUNNY     82  74  76 CALM      30.04R
ALEXANDER CITY SUNNY     87  73  64 CALM      30.03S HX  94
AUBURN         SUNNY     84  73  70 N5        30.05R HX  91
$$

ALZ051>064-281500-
SOUTHWEST ALABAMA

CITY           SKY/WX    TMP DP  RH WIND       PRES   REMARKS
MOBILE         MOSUNNY   85  76  74 NW7       30.03S HX  94
BROOKLEY FIELD SUNNY     88  75  65 NW7       30.03R HX  97
EVERGREEN      SUNNY     87  74  64 CALM      30.03R HX  95
$$

ALZ049-050-065>069-281500-
SOUTHEAST ALABAMA

CITY           SKY/WX    TMP DP  RH WIND       PRES   REMARKS
DOTHAN         MOSUNNY   84  74  71 NW5       30.04R HX  91
OZARK          MOSUNNY   85  75  71 VRB2      30.00S HX  93
TROY           SUNNY     86  75  69 VRB3      30.02S HX  95
EUFAULA        FAIR      86  76  71 CALM      30.00R HX  96
$$



USA.gov is the U.S. government's official web portal to all federal, state and local government web resources and services.